STARLINK-4150, 53134

Orbit data source: Space-Track

STARLINK-4150, 53134 is a payload satellite owned by SpaceX/Seattle (US) in LEO that was launched on Sun, 17 Jul 2022 UTC via an FALCON 9 launch vehicle from the Air Force Eastern Test Range (AFETR). Payload-class satellites include a variety of spacecraft equipped with specific instruments for various scientific and technological missions. These include communications satellites like Starlink; space stations such as the ISS; scientific satellites like the Hubble; Earth observation satellites from companies like Planet Labs, Umbra, and HawkEye 360; GPS; miniature CubeSats for education and research; and military/defense satellites.

Loading next visibility...
Identifier
53134, 2022-083C
Orbit
LEO
Country
Flag of USUS
Related business
Manufacturer
SpaceX/Seattle
Mission
Operational Commercial Communications
Bus & Motor
STARLINK, Unknown motor
Mass
297 kg wet, ~275 kg dry
Launch date (UTC)
2022-07-17 (4 years ago)
Launch vehicle
FALCON 9
Launch site
Air Force Eastern Test Range (AFETR)
Object type
Payload
Rocket body
Debris
Shape & HBR
Box + 1 Pan, 10.1 m
Radar Cross Section
13.562 m², Large (>1 m²)

Expand to show TLE details & history
Last TLE update: 2 days ago

TLE from 2 days ago
0 STARLINK-4150
1 53134U 22083C   26170.94933189 -.00000213  00000-0  47341-5 0  9994
2 53134  53.1620  74.9499 0001394  90.9013 269.2138 15.08849963216650
Epoch: 2026-06-19T22:47Z
TLE epoch observation values (Epoch: 2026-06-19T22:47:02.275Z)
Latitude
-0.00003°
Longitude
-174.98057°
Altitude
540.618 km
Speed
7.593 km/s
True Right ascension
04h 59m 47s
True Declination
0° 00' 00"
Sunlit
Object was in daylight at epoch
Visualization orbit readout
Latitude
Unknown
Longitude
Unknown
Altitude
Unknown
Speed
Unknown
Apparent Right ascension
Unknown
Apparent Declination
Unknown
Sunlit
N/A
Visualization observer readout
Local Sidereal Time
21:27:38
Azimuth
Unknown
Elevation
Unknown
Doppler factor
Unknown
Orbital elements
Apogee altitude
540.931 km
Perigee altitude
539.002 km
Semi-major axis
6,918.104 km
Eccentricity
0.00014
Inclination
53.162°
RAAN
74.9499°
Arg. of periapsis
90.9013°
True anomaly
269.19783°
Mean anomaly
269.2138°
Eccentric anomaly
269.20581°
Mean motion
3.77192 °/min
Orbital period
95.44 mins
BSTAR
0.0000047341
Loading maneuver chart data...
Computing Atmospheric mass density...
Loading historical data...
Loading historical data...
Loading historical data...
Loading historical data...
Loading historical data...
Loading historical data...
Loading historical data...

Documentation

Showing up to 5 results
|